When you browse on this site, cookies collect data to enhance your experience and personalize the content and advertising you see.
Visit our Privacy Policy to learn more. By continuing to use the site, you agree to this use of cookies and data.
  • In Italy
  • List of Countries
  • For 7 days
  • Water Temperature
  • Satellite Maps
  • Weather Map
  • Weather Widgets
  • user-avatar
    Login

    Hourly Weather Adelaide

    Today, 20 January, Sunday

    Time Temperature Precipitation Wind Pressure Humidity
    00:00 +19°C° 0 mm 4 mps 762 mmHg 64%
    01:00 +19°C° 0 mm 4 mps 762 mmHg 64%
    02:00 +19°C° 0 mm 4 mps 761 mmHg 65%
    03:00 +19°C° 0 mm 3 mps 761 mmHg 64%
    04:00 +19°C° 0 mm 3 mps 761 mmHg 63%
    05:00 +19°C° 0 mm 3 mps 761 mmHg 61%
    06:00 +19°C° 0 mm 4 mps 762 mmHg 60%
    07:00 +22°C° 0 mm 3 mps 761 mmHg 52%
    08:00 +25°C° 0 mm 3 mps 761 mmHg 43%
    09:00 +27°C° 0 mm 3 mps 761 mmHg 35%
    10:00 +29°C° 0 mm 3 mps 761 mmHg 31%
    11:00 +31°C° 0 mm 3 mps 761 mmHg 27%
    12:00 +34°C° 0 mm 3 mps 760 mmHg 23%
    13:00 +34°C° 0 mm 3 mps 760 mmHg 25%
    14:00 +34°C° 0 mm 4 mps 759 mmHg 26%
    15:00 +34°C° 0 mm 4 mps 759 mmHg 27%
    16:00 +33°C° 0 mm 4 mps 759 mmHg 35%
    17:00 +30°C° 0 mm 5 mps 759 mmHg 42%
    18:00 +28°C° 0 mm 5 mps 759 mmHg 49%
    19:00 +27°C° 0 mm 5 mps 759 mmHg 56%
    20:00 +25°C° 0 mm 5 mps 759 mmHg 62%
    21:00 +22°C° 0 mm 5 mps 759 mmHg 68%
    22:00 +22°C° 0 mm 4 mps 759 mmHg 68%
    23:00 +22°C° 0 mm 4 mps 758 mmHg 69%

    Tomorrow, 21 January, Monday

    Time Temperature Precipitation Wind Pressure Humidity
    00:00 +22°C° 0 mm 4 mps 758 mmHg 69%
    01:00 +22°C° 0 mm 4 mps 758 mmHg 70%
    02:00 +22°C° 0 mm 3 mps 758 mmHg 70%
    03:00 +22°C° 0 mm 3 mps 757 mmHg 71%
    04:00 +23°C° 0 mm 2 mps 757 mmHg 69%
    05:00 +24°C° 0 mm 2 mps 757 mmHg 67%
    06:00 +24°C° 0 mm 2 mps 758 mmHg 65%
    07:00 +27°C° 0 mm 2 mps 757 mmHg 57%
    08:00 +29°C° 0 mm 2 mps 757 mmHg 49%
    09:00 +32°C° 0 mm 1 mps 757 mmHg 41%
    10:00 +35°C° 0 mm 2 mps 757 mmHg 36%
    11:00 +37°C° 0 mm 2 mps 756 mmHg 31%
    12:00 +38°C° 0 mm 2 mps 756 mmHg 26%
    13:00 +38°C° 0 mm 3 mps 755 mmHg 26%
    14:00 +38°C° 0 mm 4 mps 755 mmHg 26%
    15:00 +38°C° 0 mm 4 mps 754 mmHg 26%
    16:00 +36°C° 0 mm 4 mps 754 mmHg 30%
    17:00 +35°C° 0 mm 4 mps 754 mmHg 34%
    18:00 +33°C° 0 mm 4 mps 754 mmHg 37%
    19:00 +32°C° 0 mm 4 mps 755 mmHg 43%
    20:00 +29°C° 0 mm 4 mps 755 mmHg 48%
    21:00 +27°C° 0 mm 3 mps 756 mmHg 54%
    22:00 +27°C° 0 mm 3 mps 755 mmHg 55%
    23:00 +26°C° 0 mm 3 mps 755 mmHg 55%

    Day after tomorrow, 22 January, Tuesday

    Time Temperature Precipitation Wind Pressure Humidity
    00:00 +26°C° 0 mm 2 mps 755 mmHg 56%
    01:00 +26°C° 0 mm 2 mps 755 mmHg 55%
    02:00 +26°C° 0 mm 2 mps 754 mmHg 54%
    03:00 +26°C° 0 mm 2 mps 754 mmHg 53%
    04:00 +26°C° 0 mm 1 mps 754 mmHg 51%
    05:00 +27°C° 0 mm 1 mps 754 mmHg 49%
    06:00 +27°C° 0 mm 1 mps 754 mmHg 46%
    07:00 +30°C° 0 mm 1 mps 754 mmHg 40%
    08:00 +33°C° 0 mm 1 mps 754 mmHg 34%
    09:00 +37°C° 0 mm 1 mps 754 mmHg 27%
    10:00 +38°C° 0 mm 2 mps 754 mmHg 26%
    11:00 +38°C° 0 mm 3 mps 754 mmHg 25%
    12:00 +40°C° 0 mm 4 mps 753 mmHg 24%
    13:00 +40°C° 0 mm 4 mps 753 mmHg 24%
    14:00 +40°C° 0 mm 4 mps 752 mmHg 24%
    15:00 +40°C° 0 mm 4 mps 752 mmHg 24%
    16:00 +38°C° 0 mm 4 mps 752 mmHg 26%
    17:00 +37°C° 0 mm 4 mps 752 mmHg 28%
    18:00 +36°C° 0 mm 4 mps 752 mmHg 30%
    19:00 +33°C° 0 mm 4 mps 753 mmHg 35%
    20:00 +30°C° 0 mm 4 mps 753 mmHg 40%
    21:00 +28°C° 0 mm 4 mps 754 mmHg 45%
    22:00 +27°C° 0 mm 4 mps 754 mmHg 47%
    23:00 +26°C° 0 mm 4 mps 754 mmHg 49%

    23 January, Wednesday

    Time Temperature Precipitation Wind Pressure Humidity
    00:00 +26°C° 0 mm 4 mps 754 mmHg 51%
    01:00 +25°C° 0 mm 4 mps 754 mmHg 51%
    02:00 +25°C° 0 mm 3 mps 754 mmHg 51%
    03:00 +25°C° 0 mm 3 mps 753 mmHg 52%
    04:00 +25°C° 0 mm 3 mps 753 mmHg 51%
    05:00 +25°C° 0 mm 2 mps 753 mmHg 50%
    06:00 +26°C° 0 mm 2 mps 753 mmHg 49%
    07:00 +29°C° 0 mm 2 mps 754 mmHg 43%
    08:00 +32°C° 0 mm 1 mps 754 mmHg 36%
    09:00 +35°C° 0 mm 1 mps 754 mmHg 29%
    10:00 +38°C° 0 mm 2 mps 753 mmHg 26%
    11:00 +39°C° 0 mm 2 mps 753 mmHg 23%
    12:00 +42°C° 0 mm 3 mps 753 mmHg 20%
    13:00 +42°C° 0 mm 3 mps 752 mmHg 20%
    14:00 +42°C° 0 mm 4 mps 751 mmHg 20%
    15:00 +41°C° 0 mm 4 mps 751 mmHg 21%
    16:00 +40°C° 0 mm 4 mps 751 mmHg 24%
    17:00 +38°C° 0 mm 4 mps 751 mmHg 26%
    18:00 +36°C° 0 mm 3 mps 751 mmHg 29%
    19:00 +34°C° 0 mm 4 mps 751 mmHg 33%
    20:00 +33°C° 0 mm 4 mps 751 mmHg 36%
    21:00 +30°C° 0 mm 4 mps 751 mmHg 39%
    22:00 +30°C° 0 mm 4 mps 751 mmHg 40%
    23:00 +30°C° 0 mm 4 mps 751 mmHg 40%

    24 January, Thursday

    Time Temperature Precipitation Wind Pressure Humidity
    00:00 +32°C° 0 mm 4 mps 750 mmHg 40%
    01:00 +32°C° 0 mm 4 mps 750 mmHg 40%
    02:00 +32°C° 0 mm 4 mps 749 mmHg 40%
    03:00 +32°C° 0 mm 5 mps 749 mmHg 40%
    04:00 +32°C° 0 mm 5 mps 749 mmHg 38%
    05:00 +33°C° 0 mm 5 mps 749 mmHg 36%
    06:00 +33°C° 0 mm 5 mps 749 mmHg 34%
    07:00 +36°C° 0 mm 5 mps 749 mmHg 28%
    08:00 +40°C° 0 mm 5 mps 749 mmHg 23%
    09:00 +43°C° 0 mm 5 mps 749 mmHg 17%
    10:00 +46°C° 0 mm 6 mps 748 mmHg 16%
    11:00 +47°C° 0 mm 6 mps 748 mmHg 14%
    12:00 +49°C° 0 mm 7 mps 747 mmHg 13%
    13:00 +49°C° 0 mm 7 mps 747 mmHg 13%
    14:00 +49°C° 0 mm 7 mps 746 mmHg 13%
    15:00 +50°C° 0 mm 7 mps 746 mmHg 13%
    16:00 +44°C° 0.1 mm 6 mps 747 mmHg 25%
    17:00 +38°C° 0.1 mm 6 mps 747 mmHg 37%
    18:00 +33°C° 0.1 mm 5 mps 748 mmHg 48%
    19:00 +30°C° 0 mm 5 mps 748 mmHg 51%
    20:00 +29°C° 0 mm 4 mps 749 mmHg 54%
    21:00 +27°C° 0 mm 4 mps 750 mmHg 57%
    22:00 +27°C° 0 mm 4 mps 750 mmHg 56%
    23:00 +26°C° 0 mm 4 mps 751 mmHg 55%

    25 January, Friday

    Time Temperature Precipitation Wind Pressure Humidity
    00:00 +26°C° 0 mm 4 mps 751 mmHg 54%
    01:00 +25°C° 0.2 mm 4 mps 751 mmHg 58%
    02:00 +23°C° 0.2 mm 4 mps 751 mmHg 63%
    03:00 +22°C° 0.2 mm 4 mps 751 mmHg 68%
    04:00 +22°C° 0.1 mm 4 mps 752 mmHg 70%
    05:00 +22°C° 0.1 mm 4 mps 753 mmHg 73%
    06:00 +22°C° 0.1 mm 5 mps 753 mmHg 75%
    07:00 +22°C° 0.1 mm 5 mps 754 mmHg 72%
    08:00 +23°C° 0.1 mm 5 mps 754 mmHg 69%
    09:00 +25°C° 0.1 mm 5 mps 755 mmHg 66%
    10:00 +26°C° 0 mm 5 mps 755 mmHg 61%
    11:00 +27°C° 0 mm 5 mps 755 mmHg 55%
    12:00 +28°C° 0 mm 5 mps 755 mmHg 50%
    13:00 +28°C° 0 mm 5 mps 755 mmHg 49%
    14:00 +28°C° 0 mm 5 mps 755 mmHg 48%
    15:00 +28°C° 0 mm 5 mps 755 mmHg 48%
    16:00 +27°C° 0 mm 5 mps 755 mmHg 52%
    17:00 +26°C° 0 mm 5 mps 756 mmHg 57%
    18:00 +23°C° 0 mm 5 mps 756 mmHg 61%
    19:00 +22°C° 0 mm 5 mps 756 mmHg 65%
    20:00 +21°C° 0 mm 5 mps 756 mmHg 69%
    21:00 +19°C° 0 mm 5 mps 757 mmHg 73%
    22:00 +19°C° 0 mm 5 mps 757 mmHg 74%
    23:00 +19°C° 0 mm 4 mps 757 mmHg 76%
    Show more